TimeEST,TemperatureF,Dew PointF,Humidity,Sea Level PressureIn,VisibilityMPH,Wind Direction,Wind SpeedMPH,Gust SpeedMPH,PrecipitationIn,Events,Conditions,WindDirDegrees,DateUTC
12:15 AM,21.2,21.2,100,29.90,10.0,Calm,Calm,-,N/A,,Unknown,0,2013-02-13 05:15:00
12:35 AM,23.0,23.0,100,29.89,10.0,Calm,Calm,-,N/A,,Unknown,0,2013-02-13 05:35:00
12:55 AM,21.2,21.2,100,29.89,10.0,Calm,Calm,-,N/A,,Unknown,0,2013-02-13 05:55:00
1:15 AM,21.2,21.2,100,29.88,10.0,Calm,Calm,-,N/A,,Unknown,0,2013-02-13 06:15:00
1:35 AM,21.2,21.2,100,29.87,10.0,Calm,Calm,-,N/A,,Unknown,0,2013-02-13 06:35:00
1:55 AM,21.2,21.2,100,29.87,10.0,Calm,Calm,-,N/A,,Unknown,0,2013-02-13 06:55:00
2:15 AM,21.2,21.2,100,29.86,10.0,Calm,Calm,-,N/A,,Unknown,0,2013-02-13 07:15:00
2:35 AM,21.2,21.2,100,29.86,10.0,Calm,Calm,-,N/A,,Unknown,0,2013-02-13 07:35:00
2:55 AM,21.2,21.2,100,29.85,10.0,Calm,Calm,-,N/A,,Unknown,0,2013-02-13 07:55:00
3:15 AM,21.2,21.2,100,29.85,10.0,Calm,Calm,-,N/A,,Unknown,0,2013-02-13 08:15:00
3:35 AM,21.2,21.2,100,29.84,7.0,Calm,Calm,-,N/A,,Unknown,0,2013-02-13 08:35:00
3:55 AM,21.2,21.2,100,29.83,7.0,Calm,Calm,-,N/A,,Unknown,0,2013-02-13 08:55:00
4:15 AM,21.2,21.2,100,29.84,7.0,Calm,Calm,-,N/A,,Unknown,0,2013-02-13 09:15:00
4:35 AM,21.2,21.2,100,29.83,10.0,Calm,Calm,-,N/A,,Unknown,0,2013-02-13 09:35:00
4:55 AM,21.2,21.2,100,29.83,10.0,Calm,Calm,-,N/A,,Unknown,0,2013-02-13 09:55:00
5:15 AM,21.2,21.2,100,29.83,10.0,Calm,Calm,-,N/A,,Unknown,0,2013-02-13 10:15:00
5:35 AM,21.2,21.2,100,29.83,10.0,Calm,Calm,-,N/A,,Unknown,0,2013-02-13 10:35:00
5:55 AM,21.2,21.2,100,29.82,10.0,Calm,Calm,-,N/A,,Unknown,0,2013-02-13 10:55:00
6:15 AM,21.2,21.2,100,29.82,7.0,Calm,Calm,-,N/A,,Unknown,0,2013-02-13 11:15:00
6:35 AM,21.2,21.2,100,29.82,7.0,Calm,Calm,-,N/A,,Unknown,0,2013-02-13 11:35:00
6:55 AM,21.2,21.2,100,29.80,7.0,Calm,Calm,-,N/A,,Unknown,0,2013-02-13 11:55:00
7:15 AM,21.2,21.2,100,29.79,7.0,Calm,Calm,-,N/A,,Unknown,0,2013-02-13 12:15:00
7:35 AM,21.2,21.2,100,29.78,7.0,Calm,Calm,-,N/A,,Unknown,0,2013-02-13 12:35:00
7:55 AM,23.0,23.0,100,29.79,7.0,Calm,Calm,-,N/A,,Unknown,0,2013-02-13 12:55:00
8:15 AM,24.8,24.8,100,29.79,7.0,Calm,Calm,-,N/A,,Unknown,0,2013-02-13 13:15:00
8:35 AM,26.6,24.8,93,29.78,10.0,East,5.8,-,N/A,,Unknown,100,2013-02-13 13:35:00
8:55 AM,26.6,26.6,100,29.77,10.0,East,3.5,-,N/A,,Unknown,100,2013-02-13 13:55:00
9:15 AM,28.4,26.6,93,29.76,10.0,Calm,Calm,-,N/A,,Unknown,0,2013-02-13 14:15:00
9:35 AM,28.4,26.6,93,29.76,10.0,Calm,Calm,-,N/A,,Unknown,0,2013-02-13 14:35:00
9:55 AM,32.0,28.4,87,29.74,10.0,East,4.6,-,N/A,,Unknown,100,2013-02-13 14:55:00
10:15 AM,33.8,28.4,81,29.75,10.0,Calm,Calm,-,N/A,,Unknown,0,2013-02-13 15:15:00
10:35 AM,37.4,28.4,70,29.77,10.0,Calm,Calm,-,N/A,,Unknown,0,2013-02-13 15:35:00
10:55 AM,37.4,26.6,65,29.76,10.0,Calm,Calm,-,N/A,,Unknown,0,2013-02-13 15:55:00
11:15 AM,39.2,26.6,61,29.73,10.0,Calm,Calm,-,N/A,,Unknown,0,2013-02-13 16:15:00
11:35 AM,42.8,26.6,53,29.73,10.0,South,4.6,-,N/A,,Unknown,180,2013-02-13 16:35:00
11:55 AM,42.8,26.6,53,29.72,10.0,Calm,Calm,-,N/A,,Unknown,0,2013-02-13 16:55:00
12:15 PM,42.8,24.8,49,29.73,10.0,Calm,Calm,-,N/A,,Unknown,0,2013-02-13 17:15:00
12:35 PM,42.8,26.6,53,29.72,10.0,SW,3.5,-,N/A,,Unknown,220,2013-02-13 17:35:00
12:55 PM,42.8,26.6,53,29.70,10.0,Calm,Calm,-,N/A,,Unknown,0,2013-02-13 17:55:00
1:15 PM,42.8,26.6,53,29.69,10.0,Calm,Calm,-,N/A,,Unknown,0,2013-02-13 18:15:00
1:35 PM,42.8,26.6,53,29.68,10.0,Calm,Calm,-,N/A,,Unknown,0,2013-02-13 18:35:00
1:55 PM,42.8,24.8,49,29.66,10.0,Calm,Calm,-,N/A,,Unknown,0,2013-02-13 18:55:00
2:15 PM,42.8,28.4,57,29.67,10.0,South,3.5,-,N/A,,Unknown,180,2013-02-13 19:15:00
2:35 PM,42.8,26.6,53,29.66,10.0,Calm,Calm,-,N/A,,Unknown,0,2013-02-13 19:35:00
2:55 PM,42.8,26.6,53,29.65,10.0,Calm,Calm,-,N/A,,Unknown,0,2013-02-13 19:55:00
3:15 PM,42.8,26.6,53,29.65,10.0,Calm,Calm,-,N/A,,Unknown,0,2013-02-13 20:15:00
3:35 PM,41.0,28.4,61,29.65,10.0,Calm,Calm,-,N/A,,Unknown,0,2013-02-13 20:35:00
3:55 PM,39.2,28.4,65,29.65,10.0,Calm,Calm,-,N/A,,Unknown,0,2013-02-13 20:55:00
4:15 PM,37.4,33.8,87,29.66,10.0,South,10.4,16.1,N/A,,Unknown,180,2013-02-13 21:15:00
4:35 PM,33.8,33.8,100,29.67,2.5,South,6.9,-,N/A,,Unknown,190,2013-02-13 21:35:00
4:55 PM,33.8,33.8,100,29.67,4.0,Calm,Calm,-,0.01,,Unknown,0,2013-02-13 21:55:00
5:15 PM,33.8,33.8,100,29.67,5.0,Calm,Calm,-,N/A,,Unknown,0,2013-02-13 22:15:00
5:35 PM,33.8,33.8,100,29.68,2.5,Calm,Calm,-,0.01,,Unknown,0,2013-02-13 22:35:00
5:55 PM,32.0,32.0,100,29.68,1.5,Calm,Calm,-,0.02,,Unknown,0,2013-02-13 22:55:00
6:15 PM,32.0,32.0,100,29.68,1.2,Calm,Calm,-,0.01,,Unknown,0,2013-02-13 23:15:00
6:35 PM,32.0,32.0,100,29.69,2.0,Calm,Calm,-,0.02,,Unknown,0,2013-02-13 23:35:00
6:55 PM,32.0,32.0,100,29.70,2.5,NW,3.5,-,0.03,,Unknown,320,2013-02-13 23:55:00
7:15 PM,32.0,32.0,100,29.70,3.0,Calm,Calm,-,N/A,,Unknown,0,2013-02-14 00:15:00
7:35 PM,32.0,32.0,100,29.71,4.0,Calm,Calm,-,N/A,,Unknown,0,2013-02-14 00:35:00
7:55 PM,32.0,32.0,100,29.72,4.0,Calm,Calm,-,N/A,,Unknown,0,2013-02-14 00:55:00
8:15 PM,32.0,32.0,100,29.72,4.0,Calm,Calm,-,N/A,,Unknown,0,2013-02-14 01:15:00
8:35 PM,32.0,32.0,100,29.73,3.0,Calm,Calm,-,N/A,,Unknown,0,2013-02-14 01:35:00
8:55 PM,32.0,32.0,100,29.74,4.0,Calm,Calm,-,N/A,,Unknown,0,2013-02-14 01:55:00
9:15 PM,32.0,32.0,100,29.74,5.0,West,3.5,-,N/A,,Unknown,270,2013-02-14 02:15:00
9:35 PM,32.0,32.0,100,29.75,4.0,WNW,5.8,-,N/A,,Unknown,300,2013-02-14 02:35:00
9:55 PM,30.2,30.2,100,29.76,7.0,WNW,6.9,-,N/A,,Unknown,290,2013-02-14 02:55:00
10:15 PM,30.2,30.2,100,29.76,7.0,WNW,5.8,-,N/A,,Unknown,290,2013-02-14 03:15:00
10:35 PM,30.2,30.2,100,29.77,7.0,WNW,6.9,-,N/A,,Unknown,290,2013-02-14 03:35:00
10:55 PM,30.2,30.2,100,29.78,7.0,WNW,8.1,-,N/A,,Unknown,300,2013-02-14 03:55:00
11:15 PM,30.2,30.2,100,29.78,7.0,WNW,8.1,-,N/A,,Unknown,300,2013-02-14 04:15:00
11:35 PM,28.4,28.4,100,29.79,7.0,WNW,6.9,-,N/A,,Unknown,290,2013-02-14 04:35:00
11:55 PM,28.4,28.4,100,29.80,7.0,NW,4.6,-,N/A,,Unknown,310,2013-02-14 04:55:00